This demonstration page uses our WeatherBlox Daily Observations layout. Learn more.

Hourly Observations for October 18, 2015

Temp ( °F °C ) Dew Point ( °F °C ) Humidity (%) Winds ( mph kmh ) Pressure ( in mb ) Visibility ( mi km ) Precip ( " mm )
12:15 am 00:15 Clear 45 7 30 -1 57 57 SSE 13 20 30.27 1025 10 16.09344 0 0
12:35 am 00:35 Clear 46 8 30 -1 53 53 SSE 13 20 30.24 1024 10 16.09344 0 0
12:55 am 00:55 Clear 46 8 30 -1 53 53 SSE 12 19 30.24 1024 10 16.09344 0 0
1:15 am 01:15 Clear 46 8 30 -1 53 53 SSE 13 20 30.21 1023 10 16.09344 0 0
1:35 am 01:35 Clear 45 7 30 -1 57 57 SSE 12 19 30.24 1024 10 16.09344 0 0
1:55 am 01:55 Clear 45 7 30 -1 57 57 SSE 14 22 30.24 1024 10 16.09344 0 0
2:15 am 02:15 Clear 45 7 30 -1 57 57 SSE 12 19 30.24 1024 10 16.09344 0 0
2:35 am 02:35 Clear 45 7 30 -1 57 57 SSE 15 24 30.24 1024 10 16.09344 0 0
2:55 am 02:55 Clear 46 8 32 0 57 57 SSE 14 22 30.21 1023 10 16.09344 0 0
3:15 am 03:15 Clear 46 8 32 0 57 57 SSE 15 24 30.18 1022 10 16.09344 0 0
3:35 am 03:35 Clear 46 8 32 0 57 57 SSE 12 19 30.18 1022 10 16.09344 0 0
3:55 am 03:55 Clear 46 8 32 0 57 57 SSE 14 22 30.18 1022 10 16.09344 0 0
4:15 am 04:15 Clear 46 8 32 0 57 57 SSE 12 19 30.18 1022 10 16.09344 0 0
4:35 am 04:35 Clear 45 7 32 0 61 61 SSE 13 20 30.21 1023 10 16.09344 0 0
4:55 am 04:55 Clear 45 7 32 0 61 61 SSE 12 19 30.21 1023 10 16.09344 0 0
5:15 am 05:15 Clear 45 7 32 0 61 61 SSE 13 20 30.21 1023 10 16.09344 0 0
5:35 am 05:35 Clear 45 7 32 0 61 61 SSE 13 20 30.21 1023 10 16.09344 0 0
5:55 am 05:55 Clear 45 7 32 0 61 61 SSE 12 19 30.21 1023 10 16.09344 0 0
6:15 am 06:15 Clear 45 7 32 0 61 61 SSE 13 20 30.21 1023 10 16.09344 0 0
6:35 am 06:35 Clear 43 6 32 0 66 66 SSE 12 19 30.18 1022 10 16.09344 0 0
6:55 am 06:55 Clear 43 6 34 1 71 71 SSE 12 19 30.18 1022 10 16.09344 0 0
7:15 am 07:15 Clear 43 6 34 1 71 71 SSE 9 15 30.18 1022 10 16.09344 0 0
7:35 am 07:35 Clear 43 6 34 1 71 71 SSE 10 17 30.18 1022 10 16.09344 0 0
7:55 am 07:55 Sunny 43 6 34 1 71 71 SSE 12 19 30.18 1022 10 16.09344 0 0
8:15 am 08:15 Sunny 45 7 34 1 66 66 SSE 9 15 30.18 1022 10 16.09344 0 0
8:35 am 08:35 Sunny 45 7 34 1 66 66 SSE 10 17 30.18 1022 10 16.09344 0 0
8:55 am 08:55 Sunny 46 8 34 1 62 62 SSE 10 17 30.15 1021 10 16.09344 0 0
9:15 am 09:15 Sunny 48 9 36 2 62 62 SSE 12 19 30.15 1021 10 16.09344 0 0
9:35 am 09:35 Sunny 48 9 36 2 62 62 SSE 14 22 30.15 1021 10 16.09344 0 0
9:55 am 09:55 Sunny 52 11 36 2 54 54 S 14 22 30.12 1020 10 16.09344 0 0
10:15 am 10:15 Sunny 54 12 37 3 54 54 S 15 24 30.12 1020 10 16.09344 0 0
10:35 am 10:35 Sunny 55 13 37 3 51 51 S 14 22 30.12 1020 10 16.09344 0 0
10:55 am 10:55 Sunny 57 14 37 3 48 48 S 17 28 30.09 1019 10 16.09344 0 0
11:15 am 11:15 Sunny 59 15 39 4 48 48 S 18 30 30.09 1019 10 16.09344 0 0
11:35 am 11:35 Sunny 61 16 39 4 45 45 S 18 30 30.09 1019 10 16.09344 0 0
11:55 am 11:55 Sunny 63 17 39 4 42 42 S 18 30 30.09 1019 10 16.09344 0 0
12:15 pm 12:15 Sunny 66 19 39 4 37 37 S 20 31 30.06 1018 10 16.09344 0 0
12:35 pm 12:35 Sunny 68 20 41 5 38 38 S 20 31 30.03 1017 10 16.09344 0 0
12:55 pm 12:55 Sunny 70 21 41 5 35 35 S 16 26 30 1016 10 16.09344 0 0
1:15 pm 13:15 Sunny 72 22 41 5 33 33 S 18 30 30 1016 10 16.09344 0 0
1:35 pm 13:35 Sunny 73 23 41 5 31 31 S 20 31 29.97 1015 10 16.09344 0 0
1:55 pm 13:55 Sunny 73 23 41 5 31 31 SSW 18 30 29.97 1015 10 16.09344 0 0
2:15 pm 14:15 Sunny 77 25 41 5 28 28 S 21 33 29.91 1013 10 16.09344 0 0
2:35 pm 14:35 Sunny 79 26 41 5 26 26 S 17 28 29.91 1013 10 16.09344 0 0
2:55 pm 14:55 Sunny 79 26 41 5 26 26 S 16 26 29.88 1012 10 16.09344 0 0
3:15 pm 15:15 Sunny 82 28 41 5 23 23 S 28 44 29.85 1011 10 16.09344 0 0
3:35 pm 15:35 Sunny 82 28 41 5 23 23 S 28 44 29.83 1010 10 16.09344 0 0
3:55 pm 15:55 Sunny 82 28 41 5 23 23 S 22 35 29.83 1010 10 16.09344 0 0
4:15 pm 16:15 Sunny 82 28 41 5 23 23 S 17 28 29.83 1010 10 16.09344 0 0
4:35 pm 16:35 Sunny 82 28 43 6 25 25 S 24 39 29.83 1010 10 16.09344 0 0
4:55 pm 16:55 Sunny 82 28 45 7 26 26 S 23 37 29.83 1010 10 16.09344 0 0
5:15 pm 17:15 Sunny 82 28 43 6 25 25 S 25 41 29.83 1010 10 16.09344 0 0
5:35 pm 17:35 Sunny 81 27 41 5 24 24 S 24 39 29.83 1010 10 16.09344 0 0
5:55 pm 17:55 Sunny 79 26 43 6 28 28 S 18 30 29.85 1011 10 16.09344 0 0
6:15 pm 18:15 Sunny 79 26 41 5 26 26 S 17 28 29.85 1011 10 16.09344 0 0
6:35 pm 18:35 Sunny 79 26 41 5 26 26 S 16 26 29.85 1011 10 16.09344 0 0
6:55 pm 18:55 Clear 77 25 41 5 28 28 S 14 22 29.85 1011 10 16.09344 0 0
7:15 pm 19:15 Clear 77 25 41 5 28 28 S 15 24 29.85 1011 10 16.09344 0 0
7:35 pm 19:35 Clear 77 25 41 5 28 28 S 16 26 29.85 1011 10 16.09344 0 0
7:55 pm 19:55 Clear 75 24 41 5 29 29 S 15 24 29.85 1011 10 16.09344 0 0
8:15 pm 20:15 Clear 73 23 43 6 33 33 S 16 26 29.85 1011 10 16.09344 0 0
8:35 pm 20:35 Clear 73 23 43 6 33 33 S 15 24 29.85 1011 10 16.09344 0 0
8:55 pm 20:55 Clear 72 22 45 7 38 38 S 13 20 29.88 1012 10 16.09344 0 0
9:15 pm 21:15 Clear 70 21 45 7 40 40 S 12 19 29.88 1012 10 16.09344 0 0
9:35 pm 21:35 Clear 70 21 45 7 40 40 S 14 22 29.88 1012 10 16.09344 0 0
9:55 pm 21:55 Clear 70 21 45 7 40 40 S 16 26 29.88 1012 10 16.09344 0 0
10:15 pm 22:15 Clear 70 21 45 7 40 40 S 18 30 29.88 1012 10 16.09344 0 0
10:35 pm 22:35 Clear 70 21 45 7 40 40 S 18 30 29.91 1013 10 16.09344 0 0
10:55 pm 22:55 Clear 68 20 45 7 43 43 S 17 28 29.91 1013 10 16.09344 0 0
11:15 pm 23:15 Clear 68 20 45 7 43 43 S 22 35 29.91 1013 10 16.09344 0 0
11:35 pm 23:35 Clear 68 20 45 7 43 43 S 20 31 29.91 1013 10 16.09344 0 0
11:55 pm 23:55 Clear 68 20 43 6 40 40 S 20 31 29.91 1013 10 16.09344 0 0

Powered by AerisWeather